This is the latest recevied weather packets stored in our database for station/object WW1TA. If no packets are shown the sender has not sent any weather packets the latest 10 day(s).
| Time | Temp. | Humidity | Pressure | Rain* | Wind** | Luminosity | Snow |
|---|---|---|---|---|---|---|---|
| 1777705041 | 16.67° C | 99% | 1012.8 hPa | 0.51 mm | - | 0 W/m² | - |
| 1777704739 | 16.67° C | 99% | 1013.1 hPa | 0.51 mm | - | 0 W/m² | - |
| 1777704438 | 16.67° C | 99% | 1013.1 hPa | 0 mm | - | 0 W/m² | - |
| 1777704135 | 16.67° C | 99% | 1013.2 hPa | 0.51 mm | - | 0 W/m² | - |
| 1777703832 | 16.67° C | 99% | 1013.2 hPa | 1.78 mm | - | 0 W/m² | - |
| 1777703530 | 16.67° C | 99% | 1013.2 hPa | 1.78 mm | - | 0 W/m² | - |
| 1777703226 | 16.67° C | 99% | 1013.1 hPa | 1.27 mm | - | 0 W/m² | - |
| 1777702924 | 16.67° C | 99% | 1013.4 hPa | 0.51 mm | - | 0 W/m² | - |
| 1777702623 | 16.67° C | 99% | 1013.4 hPa | 0.51 mm | - | 0 W/m² | - |
| 1777702319 | 16.67° C | 99% | 1013.2 hPa | 1.27 mm | - | 0 W/m² | - |
| 1777702015 | 16.67° C | 99% | 1013.1 hPa | 1.78 mm | - | 0 W/m² | - |
| 1777701711 | 16.67° C | 99% | 1012.9 hPa | 0.51 mm | - | 0 W/m² | - |
| 1777701409 | 16.67° C | 99% | 1012.9 hPa | 0.51 mm | - | 0 W/m² | - |
| 1777701107 | 16.67° C | 99% | 1012.9 hPa | 0.51 mm | - | 0 W/m² | - |
| 1777700806 | 16.67° C | 99% | 1012.7 hPa | 0 mm | - | 0 W/m² | - |
| 1777700503 | 16.67° C | 99% | 1012.7 hPa | 0 mm | - | 0 W/m² | - |
| 1777700200 | 16.67° C | 99% | 1012.5 hPa | 0 mm | - | 0 W/m² | - |
| 1777699897 | 16.67° C | 99% | 1012.6 hPa | 0 mm | - | 0 W/m² | - |
| 1777699595 | 16.67° C | 99% | 1012.6 hPa | 0 mm | - | 0 W/m² | - |
| 1777699293 | 16.67° C | 99% | 1013 hPa | 0 mm | - | 0 W/m² | - |
| 1777698991 | 16.67° C | 99% | 1012.9 hPa | 0 mm | - | 0 W/m² | - |
| 1777698689 | 16.67° C | 99% | 1013 hPa | 0 mm | - | 0 W/m² | - |
| 1777698385 | 16.67° C | 99% | 1013.1 hPa | 0 mm | - | 0 W/m² | - |
| 1777698082 | 16.67° C | 99% | 1013.2 hPa | 0 mm | - | 0 W/m² | - |
| 1777697777 | 16.67° C | 99% | 1013.5 hPa | 0 mm | - | 0 W/m² | - |
* Rain latest hour (hover to see other rain measurements)
** Current wind speed in m/s (hover to see current wind gust speed)